GW2742 Weather Reports


time (UTC)temp
C
wind
direction
speed
KPH
gust
KPH
rain 1hr
cm
rain 24hr
cm
rain mn
cm
humidity
%
barometer
mb
20260509073039 12 0 0.0 4.8 0.00 0.05 0.00 76 1012.3
20260509072537 12 0 0.0 4.8 0.00 0.05 0.00 75 1012.4
20260509072025 12 278 0.0 4.8 0.00 0.05 0.00 74 1011.7
20260509071540 12 0 0.0 4.8 0.00 0.05 0.00 72 1011.5
20260509071026 12 0 1.6 4.8 0.00 0.05 0.00 72 1011.5
20260509070527 13 0 0.0 3.2 0.00 0.05 0.00 71 1011.5
20260509070037 13 305 1.6 3.2 0.00 0.05 0.00 71 1011.6
20260509065526 13 306 0.0 1.6 0.00 0.08 0.00 70 1011.8
20260509065028 13 306 0.0 4.8 0.00 0.08 0.00 70 1011.8
20260509064537 13 0 0.0 4.8 0.00 0.08 0.00 69 1011.8
20260509064027 13 305 1.6 4.8 0.00 0.08 0.00 68 1011.8
20260509063526 13 58 1.6 4.8 0.00 0.08 0.00 67 1011.6
20260509063036 13 168 0.0 3.2 0.00 0.08 0.00 67 1011.5
20260509062529 13 0 0.0 3.2 0.00 0.08 0.00 67 1011.3
20260509062027 13 0 0.0 3.2 0.00 0.08 0.00 67 1011.4
20260509061542 13 0 0.0 4.8 0.00 0.08 0.00 66 1011.4
20260509061026 14 0 0.0 6.4 0.00 0.08 0.00 65 1011.4
20260509060529 14 67 0.0 6.4 0.00 0.08 0.00 65 1011.3
20260509060038 14 62 3.2 6.4 0.00 0.08 0.00 64 1011.4
20260509055527 15 269 1.6 6.4 0.00 0.08 0.08 62 1011.4
20260509055025 15 263 0.0 9.7 0.00 0.08 0.08 61 1011.3
20260509054548 15 245 3.2 9.7 0.00 0.08 0.08 59 1011.4
20260509054027 16 276 4.8 9.7 0.00 0.08 0.08 57 1011.3
20260509053530 16 226 3.2 8.0 0.00 0.08 0.08 50 1011.3
20260509053129 16 326 1.6 8.0 0.00 0.08 0.08 50 1011.4
20260509052526 17 348 3.2 16.1 0.00 0.08 0.08 45 1011.3
20260509052026 16 317 4.8 19.3 0.00 0.08 0.08 46 1011.3
20260509051545 16 27 9.7 19.3 0.00 0.08 0.08 48 1011.4
20260509051024 14 325 1.6 8.0 0.00 0.08 0.08 65 1011.5
20260509050526 14 277 3.2 8.0 0.00 0.08 0.08 64 1011.4
20260509050047 15 205 3.2 12.9 0.00 0.08 0.08 64 1011.2
20260509045526 15 236 4.8 12.9 0.00 0.08 0.08 62 1011.1
20260509045026 15 165 6.4 12.9 0.00 0.08 0.08 63 1011.0
20260509044539 15 163 6.4 12.9 0.00 0.08 0.08 62 1011.0
20260509044028 15 182 4.8 12.9 0.00 0.08 0.08 61 1011.1
20260509043526 15 175 3.2 9.7 0.00 0.08 0.08 62 1011.0
20260509043037 15 174 4.8 9.7 0.00 0.08 0.08 60 1011.0
20260509042529 15 203 3.2 11.3 0.00 0.08 0.08 59 1011.1
20260509042027 15 277 1.6 14.5 0.00 0.08 0.08 58 1011.1
20260509041536 15 159 6.4 14.5 0.00 0.08 0.08 57 1011.1
20260509041027 16 214 4.8 11.3 0.00 0.08 0.08 57 1011.1
20260509040526 16 0 0.0 11.3 0.00 0.08 0.08 55 1011.1
20260509040037 16 268 1.6 11.3 0.00 0.08 0.08 55 1011.1
20260509035527 16 257 6.4 11.3 0.00 0.10 0.08 55 1011.0
20260509035029 15 221 3.2 8.0 0.00 0.10 0.08 58 1010.9
20260509034536 15 0 1.6 11.3 0.00 0.10 0.08 59 1010.9
20260509034027 15 190 3.2 11.3 0.00 0.10 0.08 60 1011.0
20260509033526 15 263 4.8 11.3 0.00 0.10 0.08 60 1011.1
20260509033039 15 219 4.8 11.3 0.00 0.10 0.08 62 1011.2
20260509032527 15 217 4.8 11.3 0.00 0.10 0.08 60 1011.2
20260509032027 15 226 3.2 11.3 0.00 0.10 0.08 59 1011.1
20260509031538 15 218 4.8 11.3 0.00 0.10 0.08 60 1010.7
20260509031026 15 185 3.2 6.4 0.00 0.10 0.08 59 1010.6
20260509030525 15 194 3.2 9.7 0.00 0.10 0.08 59 1010.4
20260509030039 15 190 4.8 9.7 0.03 0.10 0.08 57 1010.3
20260509025526 15 200 3.2 6.4 0.03 0.10 0.08 57 1010.1
20260509025026 15 212 0.0 6.4 0.03 0.10 0.08 61 1010.1
20260509024542 15 0 0.0 12.9 0.03 0.10 0.08 58 1010.0
20260509024025 15 202 3.2 12.9 0.03 0.10 0.08 60 1010.0
20260509023526 15 176 6.4 22.5 0.03 0.10 0.08 59 1009.9
20260509023047 16 195 6.4 29.0 0.03 0.10 0.08 59 1010.0
20260509022530 16 198 12.9 29.0 0.03 0.10 0.08 58 1010.1
20260509022030 16 214 9.7 22.5 0.03 0.10 0.08 55 1010.1
20260509021539 17 239 1.6 8.0 0.03 0.10 0.08 62 1010.3
20260509021026 18 286 3.2 8.0 0.03 0.10 0.08 53 1010.1
20260509020526 18 275 0.0 3.2 0.00 0.08 0.05 50 1010.0
20260509020044 18 0 0.0 0.0 0.00 0.08 0.05 45 1009.8
20260509015530 18 0 0.0 0.0 0.00 0.10 0.05 45 1009.8
20260509015027 19 0 0.0 0.0 0.00 0.10 0.05 45 1009.7
20260509014539 19 0 0.0 0.0 0.00 0.10 0.05 44 1009.7
20260509014024 19 0 0.0 3.2 0.00 0.10 0.05 43 1009.6
20260509013528 19 0 0.0 3.2 0.00 0.10 0.05 43 1009.7
20260509013040 20 50 1.6 4.8 0.00 0.10 0.05 42 1009.7
20260509012524 20 30 0.0 4.8 0.00 0.10 0.05 41 1009.6
20260509012026 20 47 1.6 4.8 0.00 0.10 0.05 42 1009.7
20260509011540 20 44 1.6 4.8 0.00 0.10 0.05 42 1009.7
20260509011027 20 0 1.6 6.4 0.00 0.10 0.05 41 1009.6
20260509010525 20 0 1.6 6.4 0.00 0.10 0.05 39 1009.7
20260509010038 20 34 3.2 8.0 0.00 0.10 0.05 37 1009.5
20260509005526 20 20 3.2 8.0 0.00 0.23 0.05 38 1009.6
20260509005024 20 37 3.2 11.3 0.00 0.23 0.05 37 1009.6
20260509004541 20 46 4.8 11.3 0.00 0.23 0.05 38 1009.5
20260509004025 20 51 3.2 8.0 0.00 0.23 0.05 38 1009.6
20260509003525 20 27 3.2 6.4 0.00 0.23 0.05 36 1009.6
20260509003055 20 52 0.0 6.4 0.00 0.23 0.05 36 1009.7
20260509002525 20 0 0.0 8.0 0.00 0.23 0.05 35 1009.7
20260509002024 21 63 3.2 9.7 0.00 0.23 0.05 35 1009.7
20260509001542 21 43 4.8 14.5 0.00 0.23 0.05 34 1009.7
20260509001025 21 60 4.8 14.5 0.00 0.23 0.05 35 1009.7
20260509000528 21 86 8.0 14.5 0.00 0.23 0.05 35 1009.6
20260509000044 21 0 1.6 11.3 0.00 0.23 0.05 35 1009.7
20260508235525 21 39 3.2 11.3 0.00 0.23 0.05 37 1009.7
20260508235025 21 340 3.2 14.5 0.00 0.23 0.05 37 1009.7
20260508234541 21 23 8.0 16.1 0.00 0.23 0.05 36 1009.8
20260508234025 21 57 6.4 16.1 0.00 0.23 0.05 35 1009.8
20260508233525 21 82 9.7 16.1 0.00 0.23 0.05 34 1009.7
20260508233037 22 26 4.8 11.3 0.00 0.23 0.05 35 1009.8
20260508232524 22 31 3.2 11.3 0.00 0.23 0.05 33 1010.0
20260508232027 22 198 1.6 12.9 0.00 0.23 0.05 37 1010.0
20260508231548 22 210 3.2 12.9 0.00 0.23 0.05 35 1010.0
20260508231024 22 219 3.2 6.4 0.00 0.23 0.05 35 1010.0
20260508230523 22 217 1.6 8.0 0.00 0.23 0.05 35 1010.2
20260508230042 22 117 1.6 8.0 0.00 0.23 0.05 36 1010.3
20260508225528 22 204 1.6 8.0 0.00 0.23 0.05 34 1010.4
20260508225027 21 323 1.6 8.0 0.00 0.23 0.05 37 1010.4
20260508224544 21 26 0.0 9.7 0.00 0.23 0.05 35 1010.6
20260508224023 21 154 3.2 11.3 0.00 0.23 0.05 36 1010.6
20260508223526 21 190 3.2 14.5 0.00 0.23 0.05 37 1010.8
20260508223038 21 180 4.8 19.3 0.00 0.23 0.05 38 1010.8
20260508222523 21 137 6.4 19.3 0.00 0.23 0.05 36 1010.9
20260508222023 21 208 3.2 19.3 0.00 0.23 0.05 37 1011.0
20260508221537 21 330 6.4 11.3 0.00 0.23 0.05 38 1011.0
20260508221025 21 1 3.2 11.3 0.00 0.23 0.05 36 1011.1
20260508220526 21 108 3.2 11.3 0.00 0.23 0.05 38 1011.2
20260508220037 21 37 1.6 6.4 0.00 0.23 0.05 40 1011.2
20260508215525 20 212 1.6 11.3 0.00 0.23 0.05 37 1011.3
20260508215027 20 162 3.2 11.3 0.00 0.23 0.05 37 1011.4
20260508214542 20 103 1.6 14.5 0.00 0.23 0.05 38 1011.5
20260508214023 20 151 4.8 16.1 0.00 0.23 0.05 37 1011.5
20260508213523 20 131 8.0 16.1 0.00 0.23 0.05 39 1011.6
20260508213042 20 125 6.4 14.5 0.00 0.23 0.05 39 1011.6
20260508212526 21 115 4.8 14.5 0.00 0.23 0.05 37 1011.6
20260508212023 20 247 3.2 16.1 0.00 0.23 0.05 40 1011.8
20260508211543 20 219 6.4 16.1 0.00 0.23 0.05 39 1011.8
20260508211023 20 179 8.0 14.5 0.00 0.23 0.05 38 1011.9
20260508210524 20 109 1.6 9.7 0.00 0.23 0.05 40 1011.9
20260508210047 20 158 4.8 9.7 0.00 0.23 0.05 44 1012.0
20260508205523 20 0 3.2 14.5 0.00 0.23 0.05 38 1011.9
20260508205025 20 85 4.8 14.5 0.00 0.23 0.05 39 1012.1
20260508204545 20 160 8.0 14.5 0.00 0.23 0.05 40 1012.2
20260508204023 19 152 8.0 12.9 0.00 0.23 0.05 43 1012.2
20260508203524 19 66 3.2 16.1 0.00 0.23 0.05 41 1012.2
20260508203049 19 94 6.4 16.1 0.00 0.23 0.05 43 1012.3
20260508202524 19 97 6.4 14.5 0.00 0.23 0.05 43 1012.4
20260508202026 18 34 6.4 12.9 0.00 0.23 0.05 42 1012.4
20260508201537 18 71 4.8 16.1 0.00 0.23 0.05 42 1012.4
20260508201026 18 17 9.7 16.1 0.00 0.23 0.05 41 1012.4
20260508200525 18 0 4.8 11.3 0.00 0.23 0.05 41 1012.5
20260508200041 18 92 4.8 11.3 0.00 0.23 0.05 41 1012.5
20260508195526 18 102 3.2 17.7 0.00 0.23 0.05 40 1012.7
20260508195025 18 120 6.4 17.7 0.00 0.23 0.05 43 1012.8
20260508194537 18 112 6.4 17.7 0.00 0.23 0.05 47 1012.9
20260508194024 18 108 8.0 17.7 0.00 0.23 0.05 44 1013.0
20260508193522 18 25 3.2 12.9 0.00 0.23 0.05 45 1013.0
20260508193042 18 126 6.4 12.9 0.00 0.23 0.05 48 1013.1
20260508192525 18 0 3.2 14.5 0.00 0.23 0.05 44 1013.1
20260508192025 18 222 6.4 17.7 0.00 0.23 0.05 45 1013.3
20260508191539 18 188 1.6 17.7 0.00 0.23 0.05 47 1013.4
20260508191025 18 80 6.4 17.7 0.00 0.23 0.05 46 1013.5
20260508190524 18 98 4.8 14.5 0.00 0.23 0.05 47 1013.6
20260508190047 17 99 3.2 14.5 0.00 0.23 0.05 49 1013.7
20260508185529 17 116 3.2 12.9 0.00 0.23 0.05 48 1013.9
20260508185023 17 233 4.8 16.1 0.00 0.23 0.05 48 1013.9
20260508184548 17 113 8.0 16.1 0.00 0.23 0.05 51 1014.0
20260508184025 17 159 9.7 16.1 0.00 0.23 0.05 52 1014.1
20260508183524 17 68 8.0 16.1 0.00 0.23 0.05 52 1014.1
20260508183041 17 90 8.0 14.5 0.00 0.23 0.05 51 1014.3
20260508182525 16 68 4.8 20.9 0.00 0.23 0.05 51 1014.2
20260508182024 16 79 9.7 20.9 0.00 0.23 0.05 53 1014.4
20260508181538 17 94 8.0 12.9 0.00 0.23 0.05 54 1014.6
20260508181026 16 65 4.8 19.3 0.00 0.23 0.05 56 1014.6
20260508180525 16 160 6.4 19.3 0.00 0.23 0.05 58 1014.7
20260508180037 16 99 6.4 14.5 0.00 0.23 0.05 59 1014.8
20260508175525 16 60 6.4 14.5 0.00 0.23 0.05 59 1014.9
20260508175025 16 127 4.8 14.5 0.00 0.23 0.05 58 1014.9
20260508174556 16 106 8.0 14.5 0.00 0.23 0.05 60 1014.9
20260508174031 16 79 6.4 22.5 0.00 0.23 0.05 60 1015.0
20260508173525 15 139 8.0 22.5 0.00 0.23 0.05 60 1015.0
20260508173040 15 124 6.4 16.1 0.00 0.23 0.05 64 1015.0
20260508172525 15 179 4.8 16.1 0.00 0.23 0.05 60 1015.2
20260508172025 15 216 8.0 19.3 0.00 0.23 0.05 63 1015.4
20260508171536 15 133 6.4 19.3 0.00 0.23 0.05 64 1015.3
20260508171025 15 107 4.8 19.3 0.00 0.23 0.05 64 1015.3
20260508170524 15 151 8.0 19.3 0.00 0.23 0.05 65 1015.5
20260508170038 15 107 6.4 16.1 0.00 0.23 0.05 66 1015.5
20260508165524 15 104 6.4 16.1 0.00 0.23 0.05 65 1015.6
20260508165024 15 126 6.4 16.1 0.00 0.23 0.05 68 1015.4
20260508164544 14 94 8.0 17.7 0.00 0.23 0.05 68 1015.7
20260508164026 14 179 8.0 17.7 0.00 0.23 0.05 68 1015.7
20260508163527 13 167 8.0 17.7 0.00 0.23 0.05 71 1015.6
20260508163104 13 131 8.0 17.7 0.00 0.23 0.05 70 1015.7
20260508162526 13 107 8.0 16.1 0.00 0.23 0.05 72 1015.7
20260508162024 13 158 8.0 16.1 0.00 0.23 0.05 71 1015.8
20260508161540 13 141 6.4 16.1 0.00 0.23 0.05 74 1015.8
20260508161025 13 131 8.0 16.1 0.00 0.23 0.05 74 1016.0
20260508160528 13 81 8.0 16.1 0.00 0.23 0.05 75 1016.0
20260508160037 13 78 8.0 14.5 0.00 0.23 0.05 76 1016.0
20260508155525 13 146 6.4 16.1 0.00 0.23 0.05 79 1016.1
20260508155025 12 160 6.4 16.1 0.00 0.23 0.05 80 1016.2
20260508154537 12 158 8.0 16.1 0.00 0.23 0.05 79 1016.2
20260508154025 12 167 8.0 19.3 0.00 0.23 0.05 79 1016.3
20260508153525 12 150 9.7 19.3 0.00 0.23 0.05 80 1016.3
20260508153037 11 125 6.4 16.1 0.00 0.23 0.05 82 1016.4
20260508152524 11 127 8.0 16.1 0.00 0.23 0.05 83 1016.4
20260508152025 10 131 4.8 16.1 0.00 0.23 0.05 86 1016.4
20260508151541 10 117 6.4 16.1 0.00 0.23 0.05 86 1016.4
20260508151033 10 148 8.0 16.1 0.00 0.23 0.05 86 1016.4
20260508150525 10 148 6.4 14.5 0.00 0.23 0.05 88 1016.5
20260508150040 10 113 6.4 12.9 0.00 0.23 0.05 89 1016.5
20260508145524 9 244 1.6 6.4 0.00 0.23 0.05 90 1016.6
20260508145025 9 21 1.6 8.0 0.00 0.23 0.05 90 1016.7
20260508144540 9 0 0.0 8.0 0.00 0.23 0.05 91 1016.7
20260508144025 8 103 3.2 8.0 0.00 0.23 0.05 91 1016.6
20260508143526 8 105 3.2 8.0 0.00 0.23 0.05 91 1016.7
20260508143037 8 78 3.2 8.0 0.00 0.23 0.05 91 1016.8
20260508142524 8 66 3.2 8.0 0.00 0.23 0.05 92 1016.7
20260508142025 8 106 3.2 8.0 0.00 0.23 0.05 92 1016.7
20260508141537 8 45 3.2 8.0 0.00 0.23 0.05 93 1016.8
20260508141022 8 0 1.6 8.0 0.00 0.23 0.05 93 1016.9
20260508140525 7 14 1.6 8.0 0.00 0.23 0.05 94 1016.7
20260508140036 7 20 0.0 4.8 0.00 0.23 0.05 94 1016.7
20260508135525 7 20 1.6 4.8 0.00 0.28 0.05 94 1016.7
20260508135024 7 25 0.0 4.8 0.00 0.28 0.05 94 1016.6
20260508134544 7 0 0.0 3.2 0.00 0.28 0.05 94 1016.7
20260508134023 6 0 0.0 3.2 0.00 0.28 0.05 94 1016.6
20260508133527 6 0 0.0 3.2 0.00 0.28 0.05 94 1016.6
20260508133045 6 0 0.0 3.2 0.00 0.28 0.05 94 1016.6
20260508132523 6 0 0.0 3.2 0.00 0.28 0.05 94 1016.7
20260508132023 6 0 0.0 4.8 0.00 0.28 0.05 94 1016.7
20260508131545 6 0 0.0 4.8 0.03 0.28 0.05 94 1016.6
20260508131026 6 55 1.6 4.8 0.03 0.28 0.05 94 1016.4
20260508130527 6 0 0.0 1.6 0.03 0.28 0.05 94 1016.4
20260508130047 5 0 0.0 1.6 0.03 0.28 0.05 94 1016.3
20260508125523 5 0 0.0 3.2 0.03 0.28 0.05 94 1016.4
20260508125023 5 0 0.0 4.8 0.03 0.28 0.05 94 1016.4
20260508124536 5 27 1.6 4.8 0.03 0.28 0.05 94 1016.2
20260508124024 4 184 0.0 3.2 0.03 0.28 0.05 94 1016.1
20260508123523 3 0 0.0 0.0 0.03 0.28 0.05 94 1016.1
20260508123041 3 0 0.0 0.0 0.03 0.28 0.05 94 1015.9
20260508122526 3 0 0.0 0.0 0.03 0.28 0.05 93 1016.0
20260508122029 3 0 0.0 0.0 0.03 0.28 0.05 93 1015.8
20260508121539 3 0 0.0 0.0 0.00 0.25 0.03 94 1015.8
20260508121023 3 0 0.0 0.0 0.00 0.25 0.03 94 1015.7
20260508120525 3 0 0.0 0.0 0.00 0.25 0.03 94 1015.8
20260508120036 3 0 0.0 0.0 0.00 0.25 0.03 94 1015.8
20260508115528 3 0 0.0 0.0 0.00 0.28 0.03 93 1015.8
20260508115025 3 0 0.0 0.0 0.00 0.28 0.03 93 1015.8
20260508114537 3 0 0.0 0.0 0.00 0.28 0.03 93 1015.7
20260508114025 3 0 0.0 0.0 0.00 0.28 0.03 93 1015.7
20260508113523 3 0 0.0 0.0 0.00 0.28 0.03 93 1015.7
20260508113047 3 0 0.0 0.0 0.00 0.28 0.03 93 1015.6
20260508112524 3 0 0.0 0.0 0.00 0.28 0.03 94 1015.7
20260508112026 3 0 0.0 0.0 0.00 0.28 0.03 93 1015.8
20260508111541 3 0 0.0 0.0 0.00 0.28 0.03 93 1015.7
20260508111023 3 0 0.0 0.0 0.00 0.28 0.03 94 1015.7
20260508110525 3 0 0.0 0.0 0.00 0.28 0.03 93 1015.6
20260508110050 3 0 0.0 0.0 0.00 0.28 0.03 93 1015.5
20260508105523 2 0 0.0 0.0 0.00 0.36 0.03 93 1015.6
20260508105023 2 0 0.0 0.0 0.00 0.36 0.03 93 1015.5
20260508104537 3 0 0.0 0.0 0.00 0.36 0.03 92 1015.5
20260508104025 3 0 0.0 0.0 0.00 0.36 0.03 92 1015.5
20260508103526 3 0 0.0 0.0 0.00 0.36 0.03 93 1015.6
20260508103040 3 0 0.0 0.0 0.00 0.36 0.03 93 1015.4
20260508102523 3 0 0.0 0.0 0.00 0.36 0.03 93 1015.6
20260508102022 3 0 0.0 3.2 0.00 0.36 0.03 93 1015.5
20260508101547 3 0 0.0 4.8 0.00 0.36 0.03 93 1015.5
20260508101023 3 184 1.6 6.4 0.00 0.36 0.03 92 1015.5
20260508100526 3 184 3.2 6.4 0.00 0.36 0.03 92 1015.4
20260508100043 4 0 0.0 0.0 0.00 0.36 0.03 93 1015.4
20260508095525 4 0 0.0 0.0 0.00 0.36 0.03 93 1015.3
20260508095022 4 0 0.0 0.0 0.00 0.36 0.03 92 1015.4
20260508094550 4 0 0.0 0.0 0.00 0.36 0.03 92 1015.2
20260508094023 4 0 0.0 0.0 0.00 0.36 0.03 93 1015.2
20260508093526 4 0 0.0 0.0 0.00 0.36 0.03 93 1015.1
20260508093051 4 0 0.0 0.0 0.00 0.36 0.03 93 1015.2
20260508092523 4 0 0.0 0.0 0.00 0.36 0.03 93 1015.3
20260508092023 4 0 0.0 0.0 0.00 0.36 0.03 93 1015.2
20260508091540 4 0 0.0 0.0 0.00 0.36 0.03 92 1015.3
20260508091023 4 0 0.0 0.0 0.00 0.36 0.03 92 1015.3
20260508090523 5 0 0.0 0.0 0.00 0.36 0.03 92 1015.2
20260508090056 5 0 0.0 0.0 0.00 0.36 0.03 92 1015.2
20260508085522 5 0 0.0 0.0 0.00 0.36 0.03 92 1015.2
20260508085027 5 0 0.0 0.0 0.00 0.36 0.03 92 1015.2
20260508084536 5 0 0.0 0.0 0.00 0.36 0.03 92 1015.4
20260508084027 5 0 0.0 0.0 0.00 0.36 0.03 92 1015.2
20260508083527 5 0 0.0 0.0 0.00 0.36 0.03 92 1015.2
20260508083041 6 0 0.0 0.0 0.00 0.36 0.03 92 1015.3
20260508082527 6 0 0.0 0.0 0.00 0.36 0.03 92 1015.3
20260508082026 6 0 0.0 0.0 0.00 0.36 0.03 92 1015.2
20260508081541 6 0 0.0 0.0 0.00 0.36 0.03 92 1015.2
20260508081026 6 0 0.0 0.0 0.00 0.36 0.03 92 1015.3
20260508080527 6 0 0.0 0.0 0.00 0.36 0.03 92 1015.3
20260508080039 6 0 0.0 1.6 0.00 0.36 0.03 92 1015.2
20260508075527 6 0 0.0 1.6 0.00 0.36 0.03 92 1015.3
20260508075029 6 0 0.0 1.6 0.00 0.36 0.03 93 1015.1
20260508074541 6 0 0.0 3.2 0.03 0.36 0.03 92 1015.2
20260508074027 6 0 0.0 3.2 0.03 0.36 0.03 92 1015.4
20260508073526 6 213 0.0 3.2 0.03 0.36 0.03 92 1015.2